TimeCST,TemperatureF,Dew PointF,Humidity,Sea Level PressureIn,VisibilityMPH,Wind Direction,Wind SpeedMPH,Gust SpeedMPH,PrecipitationIn,Events,Conditions,WindDirDegrees,DateUTC
12:13 AM,42.8,42.8,100,29.79,7.0,NNW,16.1,-,N/A,Rain,Light Rain,330,2011-11-09 06:13:00
12:20 AM,42.8,42.8,100,29.79,10.0,NNW,17.3,-,N/A,,Light Drizzle,340,2011-11-09 06:20:00
12:22 AM,42.8,42.8,100,29.80,10.0,NNW,15.0,-,N/A,,Overcast,330,2011-11-09 06:22:00
12:35 AM,42.8,42.8,100,29.80,10.0,NNW,19.6,23.0,N/A,,Overcast,340,2011-11-09 06:35:00
12:55 AM,42.6,42.6,100,29.79,10.0,NNW,16.1,-,0.03,,Overcast,330,2011-11-09 06:55:00
1:04 AM,42.8,42.8,100,29.81,10.0,NNW,15.0,-,N/A,,Overcast,330,2011-11-09 07:04:00
1:42 AM,42.8,42.8,100,29.82,10.0,NNW,13.8,-,N/A,,Light Drizzle,340,2011-11-09 07:42:00
1:55 AM,42.6,42.6,100,29.83,8.0,NNW,12.7,-,0.00,,Light Drizzle,330,2011-11-09 07:55:00
2:27 AM,42.8,42.8,100,29.87,4.0,WNW,20.7,23.0,N/A,Rain,Rain,300,2011-11-09 08:27:00
2:55 AM,39.7,39.7,100,29.89,3.0,NW,19.6,29.9,0.05,Rain,Rain,310,2011-11-09 08:55:00
3:28 AM,37.4,37.4,100,29.91,7.0,WNW,19.6,31.1,N/A,Rain,Rain,300,2011-11-09 09:28:00
3:40 AM,35.6,35.6,100,29.93,10.0,NW,19.6,26.5,N/A,Rain,Light Rain,310,2011-11-09 09:40:00
3:55 AM,36.3,36.3,100,29.93,7.0,NW,21.9,29.9,0.04,Rain,Light Rain,310,2011-11-09 09:55:00
4:01 AM,35.6,35.6,100,29.94,10.0,NW,23.0,31.1,N/A,Rain,Light Rain,310,2011-11-09 10:01:00
4:12 AM,35.6,35.6,100,29.95,10.0,NW,20.7,27.6,N/A,,Overcast,310,2011-11-09 10:12:00
4:27 AM,35.6,35.6,100,29.96,7.0,NW,17.3,23.0,N/A,,Light Drizzle,310,2011-11-09 10:27:00
4:55 AM,36.0,36.0,100,29.98,10.0,NW,19.6,25.3,0.00,,Light Drizzle,310,2011-11-09 10:55:00
5:55 AM,37.0,37.0,100,30.02,10.0,WNW,18.4,26.5,0.00,Rain,Light Rain,300,2011-11-09 11:55:00
6:05 AM,37.4,37.4,100,30.04,10.0,NW,17.3,24.2,N/A,Rain,Light Rain,310,2011-11-09 12:05:00
6:55 AM,37.8,37.8,100,30.09,10.0,NW,20.7,26.5,0.01,,Light Drizzle,310,2011-11-09 12:55:00
7:22 AM,39.2,39.2,100,30.12,10.0,NW,17.3,26.5,N/A,,Mostly Cloudy,320,2011-11-09 13:22:00
7:55 AM,39.0,38.7,99,30.13,10.0,NNW,18.4,-,0.00,,Mostly Cloudy,330,2011-11-09 13:55:00
8:44 AM,41.0,39.2,93,30.17,10.0,NW,17.3,-,N/A,,Scattered Clouds,310,2011-11-09 14:44:00
8:55 AM,40.8,38.5,91,30.17,10.0,NW,15.0,-,N/A,,Scattered Clouds,310,2011-11-09 14:55:00
9:55 AM,43.3,36.5,77,30.19,10.0,WNW,12.7,-,N/A,,Partly Cloudy,300,2011-11-09 15:55:00
10:55 AM,46.2,33.6,61,30.20,10.0,WNW,15.0,23.0,N/A,,Clear,300,2011-11-09 16:55:00
11:55 AM,48.6,32.7,54,30.20,10.0,NW,15.0,21.9,N/A,,Clear,310,2011-11-09 17:55:00
12:55 PM,51.4,30.2,44,30.20,10.0,NW,15.0,-,N/A,,Clear,310,2011-11-09 18:55:00
1:55 PM,52.5,29.7,42,30.20,10.0,NW,13.8,23.0,N/A,,Clear,310,2011-11-09 19:55:00
2:55 PM,53.4,28.9,39,30.20,10.0,WNW,16.1,-,N/A,,Clear,290,2011-11-09 20:55:00
3:55 PM,52.0,29.5,42,30.22,10.0,WNW,13.8,-,N/A,,Clear,300,2011-11-09 21:55:00
4:55 PM,48.7,29.5,47,30.23,10.0,WNW,8.1,-,N/A,,Clear,290,2011-11-09 22:55:00
5:55 PM,44.8,30.6,57,30.25,10.0,WNW,8.1,-,N/A,,Clear,290,2011-11-09 23:55:00
6:55 PM,44.4,30.0,57,30.26,10.0,WNW,10.4,-,N/A,,Clear,300,2011-11-10 00:55:00
7:55 PM,41.0,29.1,63,30.27,10.0,West,4.6,-,N/A,,Clear,260,2011-11-10 01:55:00
8:55 PM,42.3,27.5,56,30.28,10.0,WNW,9.2,-,N/A,,Clear,290,2011-11-10 02:55:00
9:55 PM,41.2,25.3,53,30.29,10.0,WNW,9.2,-,N/A,,Clear,300,2011-11-10 03:55:00
10:55 PM,39.4,23.5,53,30.29,10.0,WNW,6.9,-,N/A,,Clear,290,2011-11-10 04:55:00
11:55 PM,37.6,22.6,55,30.29,10.0,West,6.9,-,N/A,,Clear,260,2011-11-10 05:55:00